Location: Aiyekoto
(8.4333°N, 4.3667°E)
Time: 23:27:01
(UTC+00:00)

Iridium 4 Rocket - Pass Details

Date: 07 June 2020
Orbit: 584 x 905 km, 86.9° (Epoch: 10 July)

Event Time Altitude Azimuth Distance (km) Brightness Sun altitude
Exits shadow 03:33:02 49° 152° (SSE) 882 3.7 -25.3°
Maximum altitude 03:34:12 69° 89° (E) 741 3.5 -25.1°
Drops below altitude 10° 03:39:09 10° 6° (N) 2,249 6.3 -24.0°
Sets 03:41:35 0° 4° (N) 3,226 7.2 -23.5°
